Location: Joplin, MO
(37.0842°N, 94.5133°W)
Time: 09:43:30
(UTC+02:00)

Transit 2A - Pass Details

Date: 06 April 2023
Orbit: 591 x 964 km, 66.7° (Epoch: 03 June)

Event Time Altitude Azimuth Distance (km) Brightness Sun altitude
Exits shadow 11:45:07 20° 315° (NW) 1,922 7.9 -25.5°
Drops below altitude 10° 11:49:22 10° 360° (N) 2,595 9.1 -24.7°
Sets 11:52:46 0° 17° (NNE) 3,591 10.1 -24.1°
